This is the latest recevied weather packets stored in our database for station/object EA7JCM-13. If no packets are shown the sender has not sent any weather packets the latest 10 day(s).
| Time | Temp. | Humidity | Pressure | Rain* | Wind** | Luminosity | Snow |
|---|---|---|---|---|---|---|---|
| 1778052302 | 14.44° C | 52% | 1008.9 hPa | 0 mm | - | - | - |
| 1778052002 | 15° C | 48% | 1008.8 hPa | 0 mm | - | - | - |
| 1778051702 | 15.56° C | 47% | 1009 hPa | 0 mm | - | - | - |
| 1778051402 | 14.44° C | 51% | 1008.9 hPa | 0 mm | - | - | - |
| 1778051103 | 15.56° C | 50% | 1008.9 hPa | 0 mm | - | - | - |
| 1778050802 | 15° C | 50% | 1008.8 hPa | 0 mm | - | - | - |
| 1778050503 | 15° C | 51% | 1008.7 hPa | 0 mm | - | - | - |
| 1778050201 | 14.44° C | 53% | 1008.7 hPa | 0 mm | - | - | - |
| 1778049902 | 14.44° C | 54% | 1008.5 hPa | 0 mm | - | - | - |
| 1778049602 | 15° C | 54% | 1008.8 hPa | 0 mm | - | - | - |
| 1778049302 | 13.89° C | 57% | 1008.8 hPa | 0 mm | - | - | - |
| 1778049002 | 12.22° C | 62% | 1008.8 hPa | 0 mm | - | - | - |
| 1778048702 | 11.11° C | 65% | 1008.9 hPa | 0 mm | - | - | - |
| 1778048402 | 10.56° C | 66% | 1008.8 hPa | 0 mm | - | - | - |
| 1778048103 | 10.56° C | 66% | 1008.9 hPa | 0 mm | - | - | - |
| 1778047802 | 10° C | 66% | 1008.8 hPa | 0 mm | - | - | - |
| 1778047502 | 10° C | 67% | 1008.8 hPa | 0 mm | - | - | - |
| 1778047202 | 9.44° C | 69% | 1008.6 hPa | 0 mm | - | - | - |
| 1778046903 | 8.89° C | 71% | 1008.6 hPa | 0 mm | - | - | - |
| 1778046602 | 8.89° C | 71% | 1008.7 hPa | 0 mm | - | - | - |
| 1778046302 | 9.44° C | 70% | 1008.6 hPa | 0 mm | - | - | - |
| 1778046002 | 9.44° C | 70% | 1008.6 hPa | 0 mm | - | - | - |
| 1778045703 | 9.44° C | 70% | 1008.7 hPa | 0 mm | - | - | - |
| 1778045402 | 9.44° C | 69% | 1008.5 hPa | 0 mm | - | - | - |
| 1778045102 | 9.44° C | 69% | 1008.3 hPa | 0 mm | - | - | - |
* Rain latest hour (hover to see other rain measurements)
** Current wind speed in m/s (hover to see current wind gust speed)